Printer-friendly version

IAU Minor Planet Center

Minor Planet Center

MPEC 2008-K64 : 2008 KF6

The following Minor Planet Electronic Circular may be linked-to from your own Web pages, but must not otherwise be redistributed electronically.


Read MPEC 2008-K63 Read MPEC 2008-K65


M.P.E.C. 2008-K64                                Issued 2008 May 30, 17:54 UT

     The Minor Planet Electronic Circulars contain information on unusual
         minor planets and routine data on comets.  They are published
   on behalf of Commission 20 of the International Astronomical Union by the
          Minor Planet Center, Smithsonian Astrophysical Observatory,
                          Cambridge, MA 02138, U.S.A.

             Prepared using the Tamkin Foundation Computer Network

                              MPC@CFA.HARVARD.EDU
          URL http://www.cfa.harvard.edu/iau/mpc.html  ISSN 1523-6714

                                   2008 KF6

Observations:
     K08K06F* C2008 05 30.61913 15 14 54.88 -25 52 49.5          18.3 V EK064E12
     K08K06F  C2008 05 30.62454 15 14 58.99 -25 53 36.6          18.3 V EK064E12
     K08K06F  C2008 05 30.63532 15 15 07.30 -25 55 11.4          18.3 V EK064E12
     K08K06F  C2008 05 30.65483 15 15 22.49 -25 58 00.7          18.6 V EK064E12
     K08K06F  C2008 05 30.66696 15 15 31.95 -25 59 44.9          18.5 V EK064E12
     K08K06F  C2008 05 30.67506 15 15 38.11 -26 00 13.7          18.0 R EK064474
     K08K06F  C2008 05 30.67587 15 15 38.77 -26 00 20.7          18.5 R EK064474
     K08K06F  C2008 05 30.67656 15 15 39.33 -26 00 26.8          18.5 R EK064474
     K08K06F  C2008 05 30.67749 15 15 40.05 -26 00 34.7          18.2 R EK064474
     K08K06F  C2008 05 30.71009 15 16 05.88 -26 05 55.6          18.3 V EK064E12
     K08K06F  C2008 05 30.71062 15 16 06.24 -26 06 00.4          18.6 V EK064E12

Observer details:
474 Mount John Observatory, Lake Tekapo.  Observer A. C. Gilmore.  Measurer
    P. M. Kilmartin.  1.0-m f/7.7 reflector + CCD.
E12 Siding Spring Survey.  Observer G. J. Garradd.  Measurers E. C. Beshore,
    A. Boattini, G. J. Garradd, A. R. Gibbs, A. D. Grauer, R. E. Hill,
    R. A. Kowalski, S. M. Larson, R. H. McNaught.  0.5-m Uppsala Schmidt + CCD.

Orbital elements:
2008 KF6                                                 Earth MOID = 0.0353 AU
Epoch 2008 May 14.0 TT = JDT 2454600.5                  MPC
M   2.11120              (2000.0)            P               Q
n   0.28617552     Peri.  156.98585     -0.75050235     +0.65441046
a   2.2805927      Node    64.21971     -0.62113808     -0.65086967
e   0.5476304      Incl.    5.87422     -0.22568497     -0.38485793
P   3.44           H   23.5           G   0.15           U   8
Residuals in seconds of arc
080530 E12  0.6+  0.0     080530 E12  0.1-  0.5+    080530 474  0.0   0.0
080530 E12  0.3-  0.2+    080530 474  0.2+  0.1+    080530 E12  0.2+  0.0
080530 E12  0.7-  0.4-    080530 474  0.3+  0.1+    080530 E12  0.6-  0.2-
080530 E12  0.1-  0.2-    080530 474  0.4+  0.1-

Ephemeris:
2008 KF6                 a,e,i = 2.28, 0.55, 6                   q = 1.0317
Date    TT    R. A. (2000) Decl.     Delta      r     Elong.  Phase     V
2008 05 24    13 36.77   -03 37.8    0.0533   1.054   140.3    37.9    18.8
2008 05 26    14 07.21   -11 18.7    0.0542   1.060   148.5    30.0    18.6
2008 05 28    14 37.46   -18 20.7    0.0569   1.066   155.6    23.1    18.5
2008 05 30    15 06.42   -24 17.4    0.0614   1.072   161.0    18.0    18.5
2008 06 01    15 33.23   -29 01.5    0.0672   1.079   164.1    14.9    18.6
2008 06 03    15 57.40   -32 39.0    0.0742   1.086   165.3    13.7    18.8
2008 06 05    16 18.75   -35 21.5    0.0821   1.094   165.2    13.7    19.1
2008 06 07    16 37.37   -37 21.4    0.0907   1.103   164.5    14.2    19.3
2008 06 09    16 53.48   -38 49.2    0.0998   1.111   163.7    14.8    19.6
2008 06 11    17 07.36   -39 53.1    0.109    1.121   163.1    15.3    19.8
2008 06 13    17 19.32   -40 39.1    0.120    1.130   162.5    15.7    20.0
2008 06 15    17 29.61   -41 11.6    0.130    1.140   162.1    15.9    20.2
2008 06 17    17 38.50   -41 34.1    0.141    1.150   161.8    16.0    20.4
2008 06 19    17 46.20   -41 48.7    0.152    1.161   161.6    16.1    20.6
2008 06 21    17 52.88   -41 57.3    0.163    1.172   161.4    16.0    20.8
2008 06 23    17 58.72   -42 01.1    0.175    1.184   161.3    16.0    20.9
2008 06 25    18 03.83   -42 01.1    0.187    1.195   161.2    15.9    21.1
2008 06 27    18 08.33   -41 58.0    0.200    1.207   161.1    15.9    21.3
2008 06 29    18 12.32   -41 52.3    0.212    1.219   160.9    15.9    21.4
2008 07 01    18 15.89   -41 44.5    0.225    1.232   160.6    15.9    21.6
2008 07 03    18 19.11   -41 34.9    0.239    1.244   160.3    16.0    21.7
2008 07 05    18 22.05   -41 23.8    0.253    1.257   160.0    16.1    21.9
2008 07 07    18 24.75   -41 11.4    0.267    1.270   159.5    16.3    22.0
2008 07 09    18 27.26   -40 58.0    0.282    1.284   158.9    16.5    22.2
2008 07 11    18 29.62   -40 43.7    0.297    1.297   158.3    16.8    22.3
2008 07 13    18 31.86   -40 28.6    0.312    1.311   157.6    17.2    22.5

Timothy B. Spahr             (C) Copyright 2008 MPC           M.P.E.C. 2008-K64

Read MPEC 2008-K63 Read MPEC 2008-K65


Our Web policy. Index to the CBAT/MPC/ICQ pages.


Valid HTML 4.01!